HAWK-A (43765 NORAD) Tracking and Keplerian Element Data

This shows tracking and keplerian element data for the satellite.

Feedback or suggestion? Click here.




ElementValue
Catalog43765
NameHAWK-A
Epoch Orbit33753
Epoch Day35.11983133
Epoch Year2025
RAAN91.367
Inclination97.4647
Eccentricity0.0008341
Argument of Perigee200.665
Mean Anonmoly159.4242
Mean Motion15.07473411
Decay Rate6.909E-05
L11 43765U 18099H 25035.11983133 .00006909 00000+0 45912-3 0 9993
L22 43765 97.4647 91.3670 0008341 200.6650 159.4242 15.07473411337536



Live tracking and technical data element details for HAWK-A (NORAD 43765). HAWK-A can be tracked NOW for your location showing map with azimuth and elevation plus other details from your city location.







IsCatalogInMostPopularTable: catalog: 43765, numindb: 475
Update: records affected: 1



GetName: 43765 HAWK-A

Hit Count: updated at: Thu, 22 May 2025 03:41:22 GMT